Weather History for KBIX - April, 2014

Change the Weather History Date:

Tuesday, April 22, 2014

  Actual Average Record
Temperature  
Mean Temperature 67 °F -  
Max Temperature 75 °F 78 °F 88 °F (1987)
Min Temperature 59 °F 61 °F 44 °F (1993)
Cooling Degree Days 2    
Growing Degree Days 17 (Base 50)    
Moisture  
Dew Point 64 °F    
Average Humidity 86    
Maximum Humidity 100    
Minimum Humidity 71    
Precipitation  
Precipitation 0.06 in - - ()
Sea Level Pressure  
Sea Level Pressure 29.93 in    
Wind  
Wind Speed 5 mph (WSW)    
Max Wind Speed 14 mph    
Max Gust Speed -    
Visibility 10 miles    
Events Rain    
Averages and records for this station are not official NWS values.
T = Trace of Precipitation, MM = Missing Value Source: NWS Daily Summary

Daily Weather History Graph

Daily Weather History Graph

Search for Another Location

Airport or City:

Trip Planner

Search our weather history database for the weather conditions in past years. The results will help you decide how hot, cold, wet, or windy it might be!

Date:

Astronomy

Apr. 22, 2014 Rise Set
Actual Time 6:20 AM CDT 7:27 PM CDT
Civil Twilight 5:55 AM CDT 7:52 PM CDT
Nautical Twilight 5:26 AM CDT 8:22 PM CDT
Astronomical Twilight 4:55 AM CDT 8:53 PM CDT
Moon 1:40 AM CDT (4/22) 12:57 PM CDT (4/22)
Length of Visible Light 13h 56m
Length of Day
13h 06m
Last Quarter, 46% of the Moon is Illuminated
Apr 22
Last Quarter
Apr 29
New
May 6
First Quarter
May 14
Full
May 21
Last Quarter

Hourly Weather History & Observations

Time (CDT) Temp. Dew Point Humidity Pressure Visibility Wind Dir Wind Speed Gust Speed Precip Events Conditions
12:58 AM 63.1 °F 58.8 °F 86% 30.01 in 10.0 mi WSW 4.6 mph - N/A   Clear
1:58 AM 61.7 °F 59.4 °F 92% 29.99 in 10.0 mi West 1.2 mph - N/A   Clear
2:58 AM 61.2 °F 59.9 °F 96% 29.98 in 10.0 mi Variable 1.2 mph - N/A   Clear
3:58 AM 59.4 °F 59.0 °F 99% 29.97 in 10.0 mi Calm Calm - N/A   Clear
4:58 AM 59.4 °F 58.8 °F 98% 29.97 in 10.0 mi WSW 2.3 mph - N/A   Clear
5:58 AM 59.0 °F 59.0 °F 100% 29.97 in 10.0 mi West 2.3 mph - N/A   Clear
6:58 AM 61.0 °F 61.0 °F 100% 29.99 in 10.0 mi Variable 2.3 mph - N/A   Clear
7:58 AM 63.9 °F 63.1 °F 97% 30.01 in 10.0 mi Variable 3.5 mph - N/A   Overcast
8:58 AM 68.7 °F 64.6 °F 87% 30.00 in 10.0 mi Variable 3.5 mph - N/A   Scattered Clouds
9:58 AM 71.8 °F 63.5 °F 75% 29.99 in 10.0 mi Variable 4.6 mph - N/A   Clear
10:58 AM 72.5 °F 64.4 °F 76% 29.98 in 10.0 mi Variable 3.5 mph - N/A   Partly Cloudy
11:58 AM 74.1 °F 64.9 °F 73% 29.96 in 10.0 mi SSW 11.5 mph - N/A   Clear
12:58 PM 73.9 °F 65.7 °F 75% 29.95 in 10.0 mi SW 12.7 mph - N/A   Scattered Clouds
1:58 PM 74.5 °F 64.4 °F 71% 29.93 in 10.0 mi SW 9.2 mph - N/A   Overcast
2:08 PM 73.4 °F 64.4 °F 73% 29.92 in 10.0 mi Variable 6.9 mph - N/A   Overcast
2:33 PM 75.2 °F 66.2 °F 73% 29.91 in 10.0 mi Variable 4.6 mph - N/A   Scattered Clouds
2:58 PM 75.4 °F 65.7 °F 72% 29.92 in 10.0 mi Variable 2.3 mph - N/A   Mostly Cloudy
3:58 PM 75.6 °F 66.2 °F 73% 29.89 in 10.0 mi SW 11.5 mph - N/A   Clear
4:33 PM 73.4 °F 66.2 °F 78% 29.88 in 10.0 mi SW 11.5 mph - N/A   Mostly Cloudy
4:38 PM 71.6 °F 66.2 °F 83% 29.88 in 10.0 mi SW 13.8 mph - N/A   Mostly Cloudy
4:57 PM 71.6 °F 66.2 °F 83% 29.88 in 10.0 mi SW 10.4 mph - N/A Rain Light Rain
4:58 PM 71.6 °F 66.2 °F 83% 29.89 in 10.0 mi WSW 9.2 mph - N/A Rain Light Rain
5:22 PM 69.8 °F 66.2 °F 88% 29.88 in 10.0 mi SW 8.1 mph - N/A   Overcast
5:32 PM 69.8 °F 68.0 °F 94% 29.88 in 10.0 mi WSW 9.2 mph - N/A   Mostly Cloudy
5:58 PM 71.2 °F 67.1 °F 87% 29.88 in 10.0 mi SW 11.5 mph - 0.06 in   Mostly Cloudy
6:58 PM 71.2 °F 66.4 °F 85% 29.88 in 10.0 mi WSW 5.8 mph - N/A   Overcast
7:58 PM 69.1 °F 66.4 °F 91% 29.89 in 10.0 mi SSW 5.8 mph - N/A   Overcast
8:58 PM 69.8 °F 67.5 °F 92% 29.91 in 10.0 mi North 1.2 mph - N/A   Mostly Cloudy
9:58 PM 69.1 °F 66.6 °F 92% 29.93 in 10.0 mi NNW 2.3 mph - N/A   Clear
10:58 PM 68.4 °F 64.9 °F 89% 29.93 in 10.0 mi Variable 2.3 mph - N/A   Clear
11:58 PM 66.9 °F 64.9 °F 93% 29.93 in 10.0 mi North 1.2 mph - N/A   Clear